This demonstration page uses our WeatherBlox Daily Observations layout. Learn more.

Left ArrowRight Arrow

Hourly Observations for May 7, 2016

Temp ( °F °C ) Dew Point ( °F °C ) Humidity (%) Winds ( mph kmh ) Pressure ( in mb ) Visibility ( mi km ) Precip ( " mm )
12:51 am 00:51 Clear 60 15.6 34 1.1 38 38 NW 13 20 29.75 1008 10 16 0.00 0.00
1:51 am 01:51 Clear 58 14.4 35 1.7 42 42 NW 13 20 29.76 1008 10 16 0.00 0.00
2:51 am 02:51 Clear 57 13.9 36 2.2 45 45 NW 14 22 29.77 1008 10 16 0.00 0.00
3:51 am 03:51 Clear 56 13.3 38 3.3 51 51 NW 14 22 29.80 1009 10 16 0.00 0.00
4:51 am 04:51 Clear 55 12.8 37 2.8 51 51 NW 10 17 29.81 1010 10 16 0.00 0.00
5:51 am 05:51 Sunny 54 12.2 36 2.2 51 51 WNW 8 13 29.84 1010 10 16 0.00 0.00
6:51 am 06:51 Sunny 58 14.4 37 2.8 46 46 W 9 15 29.86 1011 10 16 0.00 0.00
7:51 am 07:51 Sunny 62 16.7 36 2.2 38 38 NW 10 17 29.87 1012 10 16 0.00 0.00
8:51 am 08:51 Sunny 63 17.2 33 0.6 33 33 Calm 29.88 1012 10 16 0.00 0.00
9:51 am 09:51 Sunny 66 18.9 31 -0.6 27 27 VRB 5 7 29.88 1012 10 16 0.00 0.00
10:51 am 10:51 Sunny 67 19.4 30 -1.1 25 25 N 9 15 29.87 1011 10 16 0.00 0.00
11:51 am 11:51 Sunny 70 21.1 30 -1.1 23 23 W 9 15 29.84 1011 10 16 0.00 0.00
12:51 pm 12:51 Sunny 71 21.7 29 -1.7 21 21 undefined N/A 29.82 1010 10 16 0.00 0.00
1:51 pm 13:51 Sunny 74 23.3 28 -2.2 18 18 W 3 6 29.80 1009 10 16 0.00 0.00
2:51 pm 14:51 Sunny 76 24.4 27 -2.8 16 16 VRB 3 6 29.75 1007 10 16 0.00 0.00
3:51 pm 15:51 Sunny 77 25 25 -3.9 14 14 VRB 5 7 29.72 1007 10 16 0.00 0.00
4:51 pm 16:51 Sunny 77 25 23 -5 13 13 NNW 6 9 29.71 1006 10 16 0.00 0.00
5:51 pm 17:51 Sunny 76 24.4 24 -4.4 14 14 NW 9 15 29.69 1006 10 16 0.00 0.00
6:51 pm 18:51 Sunny 73 22.8 24 -4.4 16 16 NW 6 9 29.68 1005 10 16 0.00 0.00
7:51 pm 19:51 Clear 70 21.1 26 -3.3 19 19 WNW 15 24 29.70 1006 10 16 0.00 0.00
8:51 pm 20:51 Clear 68 20 29 -1.7 23 23 WNW 10 17 29.72 1006 10 16 0.00 0.00
9:51 pm 21:51 Clear 66 18.9 31 -0.6 27 27 WNW 14 22 29.72 1007 10 16 0.00 0.00
10:51 pm 22:51 Clear 63 17.2 33 0.6 33 33 NW 10 17 29.74 1007 10 16 0.00 0.00
11:51 pm 23:51 Clear 61 16.1 32 0 34 34 NW 9 15 29.73 1007 10 16 0.00 0.00

Powered by AerisWeather